User: anonymous   Login
Location: Blandford
(50.8667°N, 2.1667°W)
Time: 11:47:44
(UTC+00:00)
Language:

In-Cosmos 22 Rocket - Orbit

View from above orbital plane
View from above orbital plane
View from above satellite
View from above satellite

Ground track
Ground track

The orbit data is extracted from the following two-line orbital elements,

1 12646U 81075B   20190.59552104 +.00000077 +00000-0 +31917-4 0  9992
2 12646 081.2258 251.3144 0068304 040.1582 069.5547 14.15897520009645
Epoch (UTC): 08 July 2020 14:17:33
Eccentricity: 0.0068304
inclination: 81.2258°
perigee height: 790 km
apogee height: 888 km
right ascension of ascending node: 251.3144°
argument of perigee: 40.1582°
revolutions per day: 14.15897520
mean anomaly at epoch: 69.5547°
orbit number at epoch: 964

The dashed part of the orbit path shows where the satellite is in the earth's shadow,  

DLR